Stations météo

réclame
Mon MeteoGroup
Pershore, Grande-Bretagne (3529): Température de l'air & dewpoint: 17.04.2018 02:00:00 - 23.04.2018 02:00:00 (BST)Pershore, Grande-Bretagne (3529): Température de l'air -20cm & Température de l'air -100cm: 17.04.2018 02:00:00 - 23.04.2018 02:00:00 (BST)Pershore, Grande-Bretagne (3529): Vitesse du vent & gusts: 17.04.2018 02:00:00 - 23.04.2018 02:00:00 (BST)Pershore, Grande-Bretagne (3529): Direction du vent: 17.04.2018 02:00:00 - 23.04.2018 02:00:00 (BST)Pershore, Grande-Bretagne (3529): reduced air pressure: 17.04.2018 02:00:00 - 23.04.2018 02:00:00 (BST)Pershore, Grande-Bretagne (3529): visibility: 17.04.2018 02:00:00 - 23.04.2018 02:00:00 (BST)Pershore, Grande-Bretagne (3529): Quantités de précipitations: 17.04.2018 02:00:00 - 23.04.2018 02:00:00 (BST)
Date & Time tt [°C] td [°C] tt -20cm [°C] tt -100cm [°C] ff [km/h] ff [knt] fx [km/h] fx [knt] dd ppp [hPa] vv [km] rr [mm]
23.04.2018 02:00:00 8,7 6,1 - - 13 7 - - SSW 1013,7 22 0,0
23.04.2018 01:00:00 8,6 5,9 - - 15 8 - - SSW 1013,4 35 0,0
23.04.2018 00:00:00 9,0 5,7 - - 8 4 - - S 1013,3 45 0,0
22.04.2018 23:00:00 9,5 5,8 - - 11 6 - - SW 1012,8 50 0,0
22.04.2018 22:00:00 10,8 6,0 - - 15 8 - - SW 1011,8 45 0,0
22.04.2018 21:00:00 12,1 6,0 - - 15 8 - - WSW 1011,2 50 0,0
22.04.2018 20:00:00 13,3 7,1 - - 16 9 - - WSW 1010,3 50 0,0
22.04.2018 19:00:00 14,9 7,8 - - 21 11 - - WSW 1009,7 45 0,0
22.04.2018 18:00:00 15,7 8,0 - - 21 11 - - WSW 1009,4 45 0,0
22.04.2018 17:00:00 16,9 9,4 - - 24 13 - - SW 1009,0 30 0,0
22.04.2018 16:00:00 16,8 8,8 - - 22 12 - - SW 1008,9 50 0,0
22.04.2018 15:00:00 17,3 9,1 - - 22 12 - - SSW 1009,0 29 0,0
22.04.2018 14:00:00 17,2 11,2 - - 16 9 - - SSW 1009,0 13 0,0
22.04.2018 13:00:00 17,2 11,9 - - 16 9 - - WSW 1008,8 16 0,0
22.04.2018 12:00:00 17,2 11,6 - - 13 7 - - SW 1008,6 15 0,0
22.04.2018 11:00:00 17,7 11,9 - - 15 8 - - WSW 1009,1 21 0,0
22.04.2018 10:00:00 16,6 12,0 13,2 9,2 16 9 - - SW 1009,1 24 0,0
22.04.2018 09:00:00 16,1 11,9 - - 18 10 - - SSW 1008,6 19 0,0
22.04.2018 08:00:00 15,6 11,8 - - 11 6 - - S 1008,7 19 0,0
22.04.2018 07:00:00 14,5 11,5 - - 15 8 - - S 1008,7 26 0,0
22.04.2018 06:00:00 14,9 11,3 - - 16 9 - - S 1009,1 35 0,0
22.04.2018 05:00:00 14,6 10,6 - - 15 8 - - SSE 1009,7 50 0,0
22.04.2018 04:00:00 15,6 11,6 - - 15 8 - - SSE 1010,5 40 0,0
22.04.2018 03:00:00 14,6 11,9 - - 4 2 - - E 1011,5 35 0,0
22.04.2018 02:00:00 15,8 12,2 - - 8 4 - - S 1012,1 35 0,0
22.04.2018 01:00:00 15,7 12,7 - - 9 5 - - SSE 1013,0 35 0,0
22.04.2018 00:00:00 13,5 12,5 - - 4 2 - - SSE 1013,3 16 0,0
21.04.2018 23:00:00 14,9 12,9 - - 15 8 - - SSE 1013,8 30 1,6
21.04.2018 22:00:00 16,1 13,0 - - 31 17 59 32 SSE 1014,8 9 0,2
21.04.2018 21:00:00 17,3 14,6 - - 9 5 - - SE 1014,0 16 0,4
21.04.2018 20:00:00 19,1 12,3 - - 4 2 - - SE 1014,2 30 0,0
21.04.2018 19:00:00 21,9 12,5 - - 15 8 - - SSE 1014,5 35 0,0
21.04.2018 18:00:00 22,8 13,4 - - 18 10 - - SSE 1015,1 26 0,0
21.04.2018 17:00:00 21,7 15,0 - - 15 8 - - SE 1016,3 13 0,0
21.04.2018 16:00:00 20,2 15,0 - - 11 6 - - ESE 1017,3 10 0,0
21.04.2018 15:00:00 18,8 15,6 - - 9 5 - - SE 1018,5 8 0,2
21.04.2018 14:00:00 20,2 13,3 - - 11 6 - - S 1019,5 11 0,0
21.04.2018 13:00:00 19,8 13,0 - - 8 4 - - SE 1019,9 10 0,0
21.04.2018 12:00:00 18,3 12,2 - - 5 3 - - SE 1020,9 9 0,0
21.04.2018 11:00:00 16,2 11,1 - - 8 4 - - ENE 1021,4 14 0,0
21.04.2018 10:00:00 14,2 9,5 13,0 9,0 5 3 - - E 1022,0 15 0,0
21.04.2018 09:00:00 12,9 8,9 - - 5 3 - - ENE 1022,2 14 0,0
21.04.2018 08:00:00 9,1 7,7 - - 4 2 - - WNW 1022,8 20 0,0
21.04.2018 07:00:00 7,3 6,4 - - 4 2 - - NNE 1023,0 26 0,0
21.04.2018 06:00:00 6,5 5,4 - - 4 2 - - NNE 1023,0 16 0,0
21.04.2018 05:00:00 6,8 5,7 - - 5 3 - - N 1023,2 25 0,0
21.04.2018 04:00:00 7,5 6,2 - - 4 2 - - N 1023,7 25 0,0
21.04.2018 03:00:00 8,0 6,4 - - 2 1 - - N 1023,9 18 0,0
21.04.2018 02:00:00 9,0 7,3 - - 4 2 - - NNW 1024,3 21 0,0
21.04.2018 01:00:00 10,2 7,7 - - 4 2 - - N 1024,7 21 0,0
21.04.2018 00:00:00 10,1 7,8 - - 8 4 - - NNW 1024,6 23 0,0
20.04.2018 23:00:00 11,2 7,7 - - 8 4 - - NW 1024,6 21 0,0
20.04.2018 22:00:00 12,9 8,8 - - 4 2 - - NE 1024,4 20 0,0
20.04.2018 21:00:00 15,1 9,9 - - 4 2 - - N 1024,1 30 0,0
20.04.2018 20:00:00 17,9 10,5 - - 8 4 - - NNW 1023,6 30 0,0
20.04.2018 19:00:00 20,6 9,5 - - 4 2 - - N 1023,6 29 0,0
20.04.2018 18:00:00 20,7 10,6 - - 5 3 - - N 1023,7 26 0,0
20.04.2018 17:00:00 20,2 9,6 - - 8 4 - - N 1023,9 20 0,0
20.04.2018 16:00:00 20,4 9,9 - - 8 4 - - NW 1024,5 18 0,0
20.04.2018 15:00:00 19,6 9,8 - - 9 5 - - NNW 1024,8 20 0,0
20.04.2018 14:00:00 19,4 10,7 - - 9 5 - - NNW 1025,0 40 0,0
20.04.2018 13:00:00 17,9 10,4 - - 8 4 - - NW 1025,4 30 0,0
20.04.2018 12:00:00 16,3 11,1 - - 5 3 - - N 1025,5 26 0,0
20.04.2018 11:00:00 14,7 11,1 - - 8 4 - - NW 1025,7 16 0,0
20.04.2018 10:00:00 12,5 10,9 12,4 8,7 8 4 - - NW 1025,6 5 0,0
20.04.2018 09:00:00 10,8 10,7 - - 9 5 - - NW 1025,3 1,7 0,0
20.04.2018 08:00:00 10,8 10,7 - - 8 4 - - NW 1025,0 1,1 0,0
20.04.2018 07:00:00 10,5 10,4 - - 11 6 - - NW 1024,7 0,9 0,0
20.04.2018 06:00:00 10,6 10,4 - - 8 4 - - NW 1024,4 2,3 0,0
20.04.2018 05:00:00 9,7 9,4 - - 8 4 - - NW 1024,2 2,6 0,0
20.04.2018 04:00:00 9,2 8,8 - - 11 6 - - NW 1024,2 3,6 0,0
20.04.2018 03:00:00 9,5 8,8 - - 5 3 - - WNW 1024,1 3,5 0,0
20.04.2018 02:00:00 10,6 9,5 - - 8 4 - - NNW 1024,0 7 0,0
20.04.2018 01:00:00 11,6 10,4 - - 2 1 - - W 1024,2 9 0,0
20.04.2018 00:00:00 13,0 11,0 - - 8 4 - - W 1023,9 14 0,0
19.04.2018 23:00:00 13,0 10,5 - - 8 4 - - W 1023,7 22 0,0
19.04.2018 22:00:00 15,2 10,8 - - 2 1 - - SSW 1023,8 27 0,0
19.04.2018 21:00:00 15,8 10,2 - - 4 2 - - SE 1023,8 28 0,0
19.04.2018 20:00:00 20,0 10,8 - - 5 3 - - S 1023,1 35 0,0
19.04.2018 19:00:00 22,2 11,4 - - 11 6 - - SW 1023,0 40 0,0
19.04.2018 18:00:00 24,5 10,0 - - 9 5 - - WSW 1022,9 45 0,0
19.04.2018 17:00:00 24,3 9,4 - - 11 6 - - SSW 1022,8 24 0,0
19.04.2018 16:00:00 24,7 10,1 - - 11 6 - - S 1023,0 35 0,0
19.04.2018 15:00:00 24,8 12,0 - - 11 6 - - SSW 1023,4 18 0,0
19.04.2018 14:00:00 23,9 10,5 - - 8 4 - - WSW 1023,6 26 0,0
19.04.2018 13:00:00 23,2 10,5 - - 9 5 - - SW 1023,6 35 0,0
19.04.2018 12:00:00 21,9 12,2 - - 4 2 - - NNW 1024,0 22 0,0
19.04.2018 11:00:00 20,2 12,2 - - 8 4 - - W 1024,0 17 0,0
19.04.2018 10:00:00 18,3 11,3 11,2 8,7 8 4 - - WSW 1023,9 21 0,0
19.04.2018 09:00:00 16,9 11,1 - - 2 1 - - SW 1023,7 16 -
19.04.2018 08:00:00 13,5 11,1 - - 4 2 - - NW 1023,3 18 0,0
19.04.2018 07:00:00 12,1 10,1 - - 5 3 - - E 1022,9 22 -
19.04.2018 06:00:00 9,9 8,0 - - 8 4 - - E 1023,0 20 -
19.04.2018 05:00:00 10,7 7,8 - - 4 2 - - N 1023,1 23 -
19.04.2018 04:00:00 12,4 8,2 - - 2 1 - - WNW 1023,3 28 -
19.04.2018 03:00:00 15,5 9,1 - - 13 7 - - SSE 1023,0 35 -
19.04.2018 02:00:00 16,9 9,0 - - 21 11 - - S 1023,2 30 0,0
19.04.2018 01:00:00 17,6 8,9 - - 21 11 - - SSE 1023,5 30 0,0
19.04.2018 00:00:00 17,6 8,5 - - 22 12 - - SE 1023,7 30 0,0
18.04.2018 23:00:00 17,0 8,4 - - 22 12 - - SE 1023,8 35 0,0
18.04.2018 22:00:00 17,0 7,7 - - 18 10 - - SE 1023,9 30 0,0
18.04.2018 21:00:00 17,5 7,3 - - 13 7 - - SE 1023,7 45 0,0
18.04.2018 20:00:00 19,3 7,4 - - 9 5 - - SSE 1023,7 45 0,0
18.04.2018 19:00:00 21,4 7,6 - - 18 10 - - SE 1023,6 40 0,0
18.04.2018 18:00:00 23,0 8,4 - - 24 13 - - SSE 1024,0 50 0,0
18.04.2018 17:00:00 23,4 10,3 - - 24 13 - - SSE 1024,5 40 0,0
18.04.2018 16:00:00 22,9 11,9 - - 24 13 - - SSE 1025,3 45 0,0
18.04.2018 15:00:00 22,3 12,5 - - 21 11 - - SSE 1025,7 35 0,0
18.04.2018 14:00:00 21,2 12,5 - - 18 10 - - SSE 1026,0 24 0,0
18.04.2018 13:00:00 20,2 12,0 - - 16 9 - - S 1026,7 22 0,0
18.04.2018 12:00:00 19,2 12,0 - - 13 7 - - SSW 1026,9 30 0,0
18.04.2018 11:00:00 17,3 11,5 - - 21 11 - - SSW 1027,0 15 0,0
18.04.2018 10:00:00 16,1 12,3 10,0 8,5 18 10 - - SSW 1026,8 23 0,0
18.04.2018 09:00:00 14,3 11,7 - - 18 10 - - S 1026,4 30 0,0
18.04.2018 08:00:00 13,9 11,6 - - 24 13 - - S 1025,8 22 0,0
18.04.2018 07:00:00 13,4 11,4 - - 16 9 - - S 1025,4 16 0,0
18.04.2018 06:00:00 13,8 11,6 - - 13 7 - - S 1024,5 19 0,0
18.04.2018 05:00:00 13,9 11,5 - - 18 10 - - S 1023,9 21 0,0
18.04.2018 04:00:00 13,7 11,4 - - 21 11 - - S 1023,3 18 0,0
18.04.2018 03:00:00 13,8 11,9 - - 18 10 - - S 1023,3 15 0,0
18.04.2018 02:00:00 13,8 12,3 - - 22 12 - - S 1022,9 15 0,0
18.04.2018 01:00:00 13,5 12,6 - - 16 9 - - S 1022,6 24 0,0
18.04.2018 00:00:00 13,0 12,2 - - 13 7 - - SSW 1022,7 4,7 0,2
17.04.2018 23:00:00 13,2 11,9 - - 16 9 - - S 1022,0 19 0,2
17.04.2018 22:00:00 13,7 11,5 - - 24 13 - - S 1021,1 25 0,0
17.04.2018 21:00:00 13,7 11,5 - - 22 12 - - S 1020,8 30 0,0
17.04.2018 20:00:00 13,8 11,5 - - 24 13 - - S 1019,8 50 0,0
17.04.2018 19:00:00 13,9 11,4 - - 26 14 - - S 1019,1 45 0,0
17.04.2018 18:00:00 13,9 11,6 - - 24 13 46 25 S 1018,7 27 0,0
17.04.2018 17:00:00 13,9 11,2 - - 28 15 48 26 SSW 1018,0 10 0,0
17.04.2018 16:00:00 14,3 10,4 - - 34 18 52 28 S 1017,5 13 0,0
17.04.2018 15:00:00 14,4 10,1 - - 34 18 50 27 S 1017,2 18 0,0
17.04.2018 14:00:00 14,2 9,7 - - 24 13 46 25 SSW 1017,1 15 0,0
17.04.2018 13:00:00 14,3 9,2 - - 29 16 52 28 S 1016,3 19 0,0
17.04.2018 12:00:00 13,7 8,3 - - 26 14 - - S 1016,1 18 0,0
17.04.2018 11:00:00 13,3 6,7 - - 28 15 50 27 S 1015,8 21 0,0
17.04.2018 10:00:00 13,5 5,9 9,7 8,4 35 19 54 29 S 1015,2 28 0,0
17.04.2018 09:00:00 13,1 5,4 - - 31 17 46 25 S 1015,1 30 0,0
17.04.2018 08:00:00 12,5 6,1 - - 37 20 55 30 S 1014,6 21 0,0
17.04.2018 07:00:00 12,0 6,4 - - 34 18 50 27 S 1014,1 20 0,0
17.04.2018 06:00:00 11,4 6,8 - - 22 12 - - S 1014,1 25 0,0
17.04.2018 05:00:00 11,4 6,7 - - 24 13 50 27 S 1014,3 24 0,0
17.04.2018 04:00:00 11,5 6,3 - - 37 20 54 29 S 1013,9 20 0,0
17.04.2018 03:00:00 11,0 5,7 - - 24 13 - - S 1014,0 25 0,0
17.04.2018 02:00:00 11,2 5,6 - - 22 12 - - S 1014,8 30 0,0

tt = Température de l'air
td = dewpoint
tt -20cm = Température de l'air -20cm
tt -100cm = Température de l'air -100cm
ff = Vitesse du vent
fx = gusts
dd = Direction du vent
ppp = reduced air pressure
vv = visibility
rr = Quantités de précipitations

stations d'obs. à proximité